Flag for Denmark Weather past 2 weeks in Kolding, Denmark

Now
41 °F

Quite cool.


Feels Like: 34 °F
Forecast: 39 / 47 °F
Wind: 12 mph from Southwest

Location: Vamdrup

Current Time: Mar 6, 2015 at 9:35:40 PM

Latest Report: Mar 6, 2015 at 8:50 PM


Visibility: N/A

Pressure: 30.36 "Hg

Humidity: 93%

Dew point: 39 °F

Location of KoldingLocation

Historic Weather in Kolding — Graph

°F

Kolding temperature yesterday

Maximum temperature yesterday: 45 °F (at 12:50 PM)
Minimum temperature yesterday: 32 °F (at 12:50 AM)
Average temperature yesterday: 39 °F

Past Weeks' High & Low Weather Summary

 TemperatureHumidityPressure
High45 °F (Feb 26, 1:50 PM)100% (Feb 20, 5:20 AM)30.45 "Hg (Feb 20, 5:20 AM)
Low30 °F (Feb 28, 12:20 AM)66% (Feb 26, 2:50 PM)29.15 "Hg (Feb 23, 7:20 AM)
Average38 °F90%29.73 "Hg
* Reported Feb 19 8:20 PM — Mar 6 8:20 PM, Kolding, Weather by CustomWeather, © 2015

Note: Actual official high and low records may vary slightly from our data, if they occured in-between our weather recording intervals... More about our weather records

Advertising

Kolding weather history for previous 24 hours

 ConditionsComfort  
Time TempWeatherWind HumidityBarometerVisibility
8:20 PM
Fri, Mar 6
41 °FQuite cool.9 mph93%30.36 "HgN/A
7:50 PM43 °FQuite cool.10 mph93%30.39 "HgN/A
7:20 PM43 °FQuite cool.12 mph93%30.39 "HgN/A
6:50 PM43 °FQuite cool.14 mph93%30.39 "HgN/A
6:20 PM43 °FQuite cool.14 mph93%30.36 "HgN/A
5:50 PM43 °FQuite cool.13 mph93%30.39 "HgN/A
5:20 PM43 °FQuite cool.13 mph93%30.39 "HgN/A
4:50 PM43 °FFog.12 mph100%30.36 "Hg2 mi
3:50 PM43 °FFog.12 mph93%30.36 "Hg1 mi
2:50 PM43 °FDrizzle. Dense fog.14 mph100%30.36 "Hg1 mi
2:20 PM45 °FDrizzle. Dense fog.13 mph93%30.36 "Hg1 mi
1:50 PM45 °FDrizzle. Dense fog.13 mph93%30.36 "Hg1 mi
12:50 PM43 °FDrizzle. Dense fog.14 mph100%30.39 "Hg1 mi
12:20 PM43 °FDrizzle. Dense fog.15 mph100%30.39 "Hg1 mi
11:50 AM43 °FDrizzle. Dense fog.13 mph100%30.39 "Hg1 mi
11:20 AM43 °FFog.14 mph100%30.36 "Hg1 mi
10:50 AM43 °FFog.15 mph93%30.39 "Hg1 mi
10:20 AM43 °FFog.13 mph93%30.39 "Hg1 mi
9:50 AM43 °FFog.13 mph93%30.39 "Hg1 mi
9:20 AM43 °FFog.13 mph93%30.39 "Hg2 mi
8:50 AM43 °FDrizzle. Partly sunny.12 mph93%30.36 "Hg2 mi
8:20 AM43 °FDrizzle. Partly sunny.12 mph93%30.36 "Hg1 mi
7:50 AM43 °FQuite cool.15 mph87%30.36 "HgN/A
7:20 AM43 °FQuite cool.14 mph87%30.36 "HgN/A
6:50 AM43 °FQuite cool.14 mph87%30.36 "HgN/A
6:20 AM43 °FQuite cool.14 mph87%30.36 "HgN/A
5:50 AM43 °FQuite cool.15 mph87%30.36 "HgN/A
5:20 AM43 °FQuite cool.13 mph87%30.36 "HgN/A
4:50 AM41 °FQuite cool.13 mph93%30.36 "HgN/A
4:20 AM41 °FQuite cool.13 mph93%30.36 "HgN/A
3:50 AM41 °FQuite cool.13 mph93%30.39 "HgN/A
3:20 AM41 °FQuite cool.13 mph93%30.39 "HgN/A
2:50 AM41 °FQuite cool.13 mph93%30.39 "HgN/A
2:20 AM41 °FQuite cool.12 mph93%30.39 "HgN/A
1:50 AM41 °FQuite cool.12 mph93%30.39 "HgN/A
1:20 AM41 °FQuite cool.12 mph93%30.39 "HgN/A
12:50 AM41 °FQuite cool.10 mph93%30.42 "HgN/A
12:20 AM41 °FQuite cool.12 mph93%30.42 "HgN/A
11:50 PM
Thu, Mar 5
41 °FQuite cool.10 mph93%30.42 "HgN/A
11:20 PM41 °FQuite cool.12 mph93%30.42 "HgN/A
10:50 PM41 °FQuite cool.12 mph93%30.45 "HgN/A
10:20 PM41 °FQuite cool.13 mph93%30.45 "HgN/A
9:20 PM41 °FQuite cool.10 mph93%30.42 "HgN/A
Weather by CustomWeather, © 2015

See weather overviewHow to use our weather pages